DMSP 5D-2 F13 DEB, 40479

Orbit data source: Space-Track

DMSP 5D-2 F13 DEB, 40479 is space debris in SSO originally from a launch on Fri, 24 Mar 1995 UTC launched from the Air Force Western Test Range (AFWTR). Debris objects in space refer to the collection of defunct objects orbiting the Earth. Examples of debris include non-operational satellites, rocket bodies, and fragments generated from explosions, collisions, or faulty payload assembly.

Loading next visibility...
Identifier
40479, 1995-015BX
Orbit
SSO
Country
Flag of USUS
Related business
Manufacturer
Unknown
Mission
Spacecraft
Bus & Motor
Unknown
Mass
Unknown
Launch date (UTC)
1995-03-24 (31 years ago)
Launch vehicle
Unknown
Launch site
Air Force Western Test Range (AFWTR)
Object type
Payload
Rocket body
Debris
Shape & HBR
Unknown shape, 0.1 m
Radar Cross Section
Small (<0.1 m²)

Expand to show TLE details & history
Last TLE update: 2 days ago

TLE from 2 days ago
0 DMSP 5D-2 F13 DEB
1 40479U 95015BX  25309.26975914  .00001312  00000-0  61560-3 0  9994
2 40479  98.7726 325.6704 0002705 337.7036  22.4023 14.21867693551253
Epoch: 2025-11-05T06:28Z
TLE epoch observation values (Epoch: 2025-11-05T06:28:27.189Z)
Latitude
-0.00007°
Longitude
-176.18772°
Altitude
820.158 km
Speed
7.444 km/s
True Right ascension
21h 42m 40s
True Declination
0° 00' 00"
Sunlit
Object was in daylight at epoch
Visualization orbit readout
Latitude
Unknown
Longitude
Unknown
Altitude
Unknown
Speed
Unknown
Apparent Right ascension
Unknown
Apparent Declination
Unknown
Sunlit
N/A
Visualization observer readout
Local Sidereal Time
17:44:45
Azimuth
Unknown
Elevation
Unknown
Doppler factor
Unknown
Orbital elements
Apogee altitude
818.149 km
Perigee altitude
814.256 km
Semi-major axis
7,194.339 km
Eccentricity
0.00027
Inclination
98.7726°
RAAN
325.6704°
Arg. of periapsis
337.7036°
True anomaly
22.41412°
Mean anomaly
22.4023°
Eccentric anomaly
22.40821°
Mean motion
3.55678 °/min
Orbital period
101.22 mins
BSTAR
0.0006156
Loading maneuver chart data...
Computing Atmospheric mass density...

Documentation

Showing up to 5 results
|